Location: Fairmont
(43.6520°N, 94.4610°W)
Time: 00:27:45
(UTC-05:00)

Cosmos-2242 - Visible Passes

Search period start: 01 June 2016 00:00
Search period end: 11 June 2016 00:00
Orbit: 593 x 618 km, 82.5° (Epoch: 31 May)

Date Brightness Start Highest point End Pass type
(mag) Time Alt. Az. Time Alt. Az. Time Alt. Az.
01 Jun 4.8 21:34:55 10° NNE 21:38:03 19° ENE 21:41:10 10° ESE visible
01 Jun 4.1 23:11:41 10° NNW 23:15:50 41° W 23:18:16 22° SSW visible
02 Jun 4.2 21:47:32 10° NNE 21:51:25 29° ENE 21:54:46 13° SE visible
02 Jun 4.9 23:25:16 10° NNW 23:28:53 25° W 23:31:39 14° SW visible
03 Jun 3.4 22:00:26 10° N 22:04:43 48° ENE 22:08:10 15° SSE visible
03 Jun 5.6 23:39:15 10° NW 23:41:51 16° W 23:44:28 10° WSW visible
04 Jun 3.0 22:13:30 10° N 22:17:57 82° E 22:21:35 15° S visible
05 Jun 3.5 22:26:45 10° NNW 22:31:06 59° W 22:35:02 12° S visible
06 Jun 4.5 22:40:10 10° NNW 22:44:12 35° W 22:48:10 10° SSW visible
07 Jun 5.2 22:53:51 10° NW 22:57:12 22° W 23:00:32 10° SW visible
08 Jun 3.2 21:28:46 10° N 21:33:07 57° E 21:37:25 10° SSE visible
08 Jun 5.7 23:08:05 10° NW 23:10:10 13° W 23:12:14 10° WSW visible
09 Jun 3.1 21:41:53 10° N 21:46:19 85° W 21:50:41 10° S visible
10 Jun 3.9 21:55:11 10° NNW 21:59:27 50° W 22:03:39 10° SSW visible
